Location: Andershausen
(51.8462°N, 9.8595°E)
Time: 12:22:08
(UTC+00:00)

Cosmos 2344 - Pass Details

Date: 18 November 2025
Orbit: 1197 x 3045 km, 63.3° (Epoch: 09 December)

Event Time Altitude Azimuth Distance (km) Brightness Sun altitude
Rises 18:22:13 0° 314° (NW) 4,193 7.0 -26.9°
Reaches altitude 10° 18:24:44 10° 313° (NW) 3,305 6.4 -27.3°
Maximum altitude 18:32:33 75° 230° (SW) 1,573 4.0 -28.5°
Enters shadow 18:38:35 28° 151° (SSE) 2,901 5.1 -29.4°
